Tracking 33744 objects as of 14-Apr-2026
HD Live streaming from Space Station
objects crossing your sky now

STARLINK-36327

Track STARLINK-36327 now!
10-day predictions
STARLINK-36327 is classified as:


NORAD ID: 67738
Int'l Code: 2026-026T
Perigee: 471.8 km
Apogee: 473.5 km
Inclination: 97.3 °
Period: 93.9 minutes
Semi major axis: 6843 km
RCS: Unknown
Launch date: February 11, 2026
Source: United States (US)
Launch site: AIR FORCE WESTERN TEST RANGE (AFWTR)
Your satellite tracking list
Your tracking list is empty




NASA's NSSDC Master Catalog

Two Line Element Set (TLE):
1 67738U 26026T   26104.15172369  .00007581  00000-0  23688-3 0  9995
2 67738  97.2842 158.3014 0001265  98.3362 261.8024 15.33448462  9565
Source of the keplerian elements: AFSPC